Weather History for KUCY - April, 2014

Change the Weather History Date:

Friday, April 25, 2014

  Actual Average (KDYR) Record (KDYR)
Temperature  
Mean Temperature 62 °F -  
Max Temperature 73 °F 70 °F 111 °F (2006)
Min Temperature 51 °F 52 °F 35 °F (2013)
Degree Days  
Heating Degree Days 3    
Growing Degree Days 12 (Base 50)    
Moisture  
Dew Point 47 °F    
Average Humidity 62    
Maximum Humidity 94    
Minimum Humidity 29    
Precipitation  
Precipitation 0.00 in - - ()
Sea Level Pressure  
Sea Level Pressure 29.90 in    
Wind  
Wind Speed 9 mph (NW)    
Max Wind Speed 16 mph    
Max Gust Speed -    
Visibility 10 miles    
Events      
Averages and records for this station are not official NWS values.
T = Trace of Precipitation, MM = Missing Value Source: NWS Daily Summary

Daily Weather History Graph

Daily Weather History Graph

Search for Another Location

Airport or City:

Trip Planner

Search our weather history database for the weather conditions in past years. The results will help you decide how hot, cold, wet, or windy it might be!

Date:

Astronomy

Apr. 25, 2014 Rise Set
Actual Time 6:09 AM CDT 7:38 PM CDT
Civil Twilight 5:42 AM CDT 8:05 PM CDT
Nautical Twilight 5:09 AM CDT 8:38 PM CDT
Astronomical Twilight 4:35 AM CDT 9:13 PM CDT
Moon 3:50 AM CDT (4/25) 4:06 PM CDT (4/25)
Length of Visible Light 14h 23m
Length of Day
13h 29m
Waning Crescent, 15% of the Moon is Illuminated
Apr 25
Waning Crescent
Apr 29
New
May 6
First Quarter
May 14
Full
May 21
Last Quarter

Hourly Weather History & Observations

Time (CDT) Temp. Dew Point Humidity Pressure Visibility Wind Dir Wind Speed Gust Speed Precip Events Conditions
12:55 AM 62.6 °F 60.8 °F 94% 29.69 in 10.0 mi SSW 8.1 mph - N/A   Overcast
1:15 AM 62.6 °F 60.8 °F 94% 29.68 in 10.0 mi SW 8.1 mph - N/A   Overcast
1:35 AM 62.6 °F 59.0 °F 88% 29.68 in 10.0 mi SW 8.1 mph - N/A   Mostly Cloudy
1:55 AM 60.8 °F 57.2 °F 88% 29.68 in 10.0 mi SW 6.9 mph - N/A   Mostly Cloudy
2:15 AM 60.8 °F 57.2 °F 88% 29.69 in 10.0 mi WSW 8.1 mph - N/A   Overcast
2:35 AM 60.8 °F 55.4 °F 82% 29.70 in 10.0 mi NW 12.7 mph - N/A   Overcast
2:55 AM 59.0 °F 55.4 °F 88% 29.72 in 10.0 mi WNW 13.8 mph - N/A   Overcast
3:15 AM 59.0 °F 53.6 °F 82% 29.72 in 10.0 mi WNW 15.0 mph - N/A   Mostly Cloudy
3:35 AM 57.2 °F 53.6 °F 88% 29.73 in 10.0 mi WNW 11.5 mph - N/A   Clear
3:55 AM 55.4 °F 53.6 °F 94% 29.74 in 10.0 mi West 6.9 mph - N/A   Clear
4:15 AM 57.2 °F 53.6 °F 88% 29.75 in 10.0 mi West 11.5 mph - N/A   Scattered Clouds
4:35 AM 57.2 °F 53.6 °F 88% 29.75 in 10.0 mi West 12.7 mph - N/A   Mostly Cloudy
4:55 AM 57.2 °F 53.6 °F 88% 29.78 in 10.0 mi WNW 16.1 mph - N/A   Overcast
5:15 AM 57.2 °F 53.6 °F 88% 29.77 in 10.0 mi NW 11.5 mph - N/A   Mostly Cloudy
5:35 AM 55.4 °F 53.6 °F 94% 29.79 in 10.0 mi WNW 15.0 mph - N/A   Mostly Cloudy
5:55 AM 57.2 °F 53.6 °F 88% 29.80 in 10.0 mi WNW 12.7 mph - N/A   Overcast
6:15 AM 57.2 °F 53.6 °F 88% 29.81 in 10.0 mi WNW 12.7 mph - N/A   Overcast
6:55 AM 55.4 °F 53.6 °F 94% 29.84 in 10.0 mi WNW 11.5 mph - N/A   Overcast
7:15 AM 55.4 °F 53.6 °F 94% 29.86 in 10.0 mi WNW 9.2 mph - N/A   Overcast
7:35 AM 55.4 °F 51.8 °F 88% 29.88 in 10.0 mi WNW 13.8 mph - N/A   Overcast
7:55 AM 55.4 °F 50.0 °F 82% 29.90 in 10.0 mi NNW 10.4 mph - N/A   Overcast
8:15 AM 55.4 °F 50.0 °F 82% 29.90 in 10.0 mi NNW 12.7 mph - N/A   Mostly Cloudy
8:35 AM 57.2 °F 50.0 °F 77% 29.92 in 10.0 mi NW 12.7 mph - N/A   Partly Cloudy
8:55 AM 57.2 °F 50.0 °F 77% 29.93 in 10.0 mi WNW 13.8 mph - N/A   Clear
9:15 AM 59.0 °F 50.0 °F 72% 29.93 in 10.0 mi NW 11.5 mph - N/A   Clear
9:35 AM 59.0 °F 48.2 °F 67% 29.94 in 10.0 mi NW 9.2 mph - N/A   Clear
9:55 AM 60.8 °F 48.2 °F 63% 29.95 in 10.0 mi NNW 9.2 mph - N/A   Clear
10:15 AM 62.6 °F 46.4 °F 55% 29.95 in 10.0 mi North 11.5 mph - N/A   Clear
10:35 AM 62.6 °F 46.4 °F 55% 29.96 in 10.0 mi NNW 10.4 mph - N/A   Clear
10:55 AM 64.4 °F 46.4 °F 52% 29.96 in 10.0 mi North 12.7 mph - N/A   Clear
11:15 AM 64.4 °F 46.4 °F 52% 29.97 in 10.0 mi NNW 11.5 mph - N/A   Clear
11:35 AM 64.4 °F 44.6 °F 49% 29.97 in 10.0 mi NNW 11.5 mph - N/A   Clear
11:55 AM 64.4 °F 42.8 °F 45% 29.97 in 10.0 mi NNW 9.2 mph - N/A   Clear
12:15 PM 66.2 °F 42.8 °F 43% 29.98 in 10.0 mi NNW 11.5 mph - N/A   Clear
12:35 PM 66.2 °F 42.8 °F 43% 29.98 in 10.0 mi North 10.4 mph - N/A   Clear
12:55 PM 68.0 °F 41.0 °F 37% 29.98 in 10.0 mi North 11.5 mph - N/A   Clear
1:15 PM 68.0 °F 39.2 °F 35% 29.98 in 10.0 mi North 10.4 mph - N/A   Clear
1:35 PM 68.0 °F 39.2 °F 35% 29.98 in 10.0 mi North 12.7 mph - N/A   Clear
1:55 PM 69.8 °F 39.2 °F 33% 29.98 in 10.0 mi NNW 12.7 mph - N/A   Clear
2:15 PM 69.8 °F 39.2 °F 33% 29.98 in 10.0 mi NNW 8.1 mph - N/A   Clear
2:35 PM 69.8 °F 39.2 °F 33% 29.98 in 10.0 mi Variable 5.8 mph - N/A   Clear
2:55 PM 69.8 °F 39.2 °F 33% 29.97 in 10.0 mi NW 9.2 mph - N/A   Clear
3:15 PM 69.8 °F 39.2 °F 33% 29.97 in 10.0 mi Variable 5.8 mph - N/A   Clear
3:35 PM 71.6 °F 39.2 °F 31% 29.96 in 10.0 mi North 5.8 mph - N/A   Clear
3:55 PM 71.6 °F 39.2 °F 31% 29.96 in 10.0 mi NW 8.1 mph - N/A   Clear
4:15 PM 71.6 °F 39.2 °F 31% 29.96 in 10.0 mi NNE 6.9 mph - N/A   Clear
4:35 PM 71.6 °F 37.4 °F 29% 29.96 in 10.0 mi NNE 8.1 mph - N/A   Clear
4:55 PM 71.6 °F 39.2 °F 31% 29.96 in 10.0 mi North 6.9 mph - N/A   Clear
5:15 PM 71.6 °F 39.2 °F 31% 29.95 in 10.0 mi Calm Calm - N/A   Clear
5:35 PM 71.6 °F 39.2 °F 31% 29.95 in 10.0 mi ENE 4.6 mph - N/A   Clear
5:55 PM 71.6 °F 37.4 °F 29% 29.95 in 10.0 mi Calm Calm - N/A   Clear
6:15 PM 73.4 °F 41.0 °F 31% 29.94 in 10.0 mi Calm Calm - N/A   Clear
6:35 PM 71.6 °F 39.2 °F 31% 29.94 in 10.0 mi Calm Calm - N/A   Clear
6:55 PM 71.6 °F 44.6 °F 38% 29.94 in 10.0 mi Calm Calm - N/A   Clear
7:15 PM 69.8 °F 37.4 °F 31% 29.94 in 10.0 mi Calm Calm - N/A   Clear
7:35 PM 66.2 °F 42.8 °F 43% 29.95 in 10.0 mi Calm Calm - N/A   Clear
7:55 PM 62.6 °F 44.6 °F 52% 29.95 in 10.0 mi SW 4.6 mph - N/A   Clear
8:15 PM 59.0 °F 44.6 °F 59% 29.96 in 10.0 mi Calm Calm - N/A   Clear
8:35 PM 60.8 °F 46.4 °F 59% 29.96 in 10.0 mi Calm Calm - N/A   Clear
8:55 PM 59.0 °F 42.8 °F 55% 29.96 in 10.0 mi Calm Calm - N/A   Clear
9:15 PM 55.4 °F 44.6 °F 67% 29.97 in 10.0 mi Calm Calm - N/A   Clear
9:35 PM 57.2 °F 44.6 °F 63% 29.97 in 10.0 mi Calm Calm - N/A   Clear
9:55 PM 55.4 °F 46.4 °F 72% 29.97 in 10.0 mi Calm Calm - N/A   Clear
10:15 PM 53.6 °F 48.2 °F 82% 29.97 in 10.0 mi Calm Calm - N/A   Clear
10:35 PM 55.4 °F 44.6 °F 67% 29.97 in 10.0 mi Calm Calm - N/A   Clear
10:55 PM 51.8 °F 46.4 °F 82% 29.96 in 10.0 mi Calm Calm - N/A   Clear
11:15 PM 51.8 °F 46.4 °F 82% 29.97 in 10.0 mi Calm Calm - N/A   Clear
11:35 PM 51.8 °F 46.4 °F 82% 29.96 in 10.0 mi Calm Calm - N/A   Clear